Time,TemperatureF,DewpointF,PressureIn,WindDirection,WindDirectionDegrees,WindSpeedMPH,WindSpeedGustMPH,Humidity,HourlyPrecipIn,Conditions,Clouds,dailyrainin,SoftwareType,DateUTC
2013-01-17 00:03:00,31.9,23.6,30.29,WNW,300,0.0,0.0,71,0.00,CLR,,0.00,WeatherDisplay:10.37,2013-01-17 06:03:00,
2013-01-17 00:08:00,31.8,23.5,30.29,WNW,300,0.0,0.0,71,0.00,CLR,,0.00,WeatherDisplay:10.37,2013-01-17 06:08:00,
2013-01-17 00:13:00,31.7,23.4,30.29,WNW,300,0.0,0.0,71,0.00,CLR,,0.00,WeatherDisplay:10.37,2013-01-17 06:13:00,
2013-01-17 00:18:00,31.6,23.3,30.29,WNW,300,0.0,0.0,71,0.00,CLR,,0.00,WeatherDisplay:10.37,2013-01-17 06:18:00,
2013-01-17 00:23:00,31.5,23.2,30.29,WNW,300,0.0,0.0,71,0.00,CLR,,0.00,WeatherDisplay:10.37,2013-01-17 06:23:00,
2013-01-17 00:28:00,31.5,23.2,30.29,WNW,300,0.0,1.2,71,0.00,CLR,,0.00,WeatherDisplay:10.37,2013-01-17 06:28:00,
2013-01-17 00:33:00,31.5,23.2,30.29,WNW,300,0.0,0.0,71,0.00,CLR,,0.00,WeatherDisplay:10.37,2013-01-17 06:33:00,
2013-01-17 00:38:00,31.6,23.3,30.29,WNW,300,0.0,0.0,71,0.00,CLR,,0.00,WeatherDisplay:10.37,2013-01-17 06:38:00,
2013-01-17 00:43:00,31.6,23.3,30.29,WNW,300,0.0,0.0,71,0.00,CLR,,0.00,WeatherDisplay:10.37,2013-01-17 06:43:00,
2013-01-17 00:48:00,31.7,23.4,30.29,WNW,300,0.0,0.0,71,0.00,CLR,,0.00,WeatherDisplay:10.37,2013-01-17 06:48:00,
2013-01-17 00:53:00,31.8,23.5,30.29,WNW,300,0.1,1.2,71,0.00,CLR,,0.00,WeatherDisplay:10.37,2013-01-17 06:53:00,
2013-01-17 00:58:00,31.9,23.2,30.30,WNW,300,0.4,2.3,70,0.00,CLR,,0.00,WeatherDisplay:10.37,2013-01-17 06:58:00,
2013-01-17 01:03:00,32.0,23.3,30.29,WNW,301,0.1,1.2,70,0.00,CLR,,0.00,WeatherDisplay:10.37,2013-01-17 07:03:00,
2013-01-17 01:08:00,32.1,23.4,30.30,WNW,301,0.0,0.0,70,0.00,CLR,,0.00,WeatherDisplay:10.37,2013-01-17 07:08:00,
2013-01-17 01:13:00,32.2,23.5,30.30,WNW,301,0.1,0.0,70,0.00,CLR,,0.00,WeatherDisplay:10.37,2013-01-17 07:13:00,
2013-01-17 01:18:00,32.3,23.6,30.30,WNW,301,0.0,1.2,70,0.00,CLR,,0.00,WeatherDisplay:10.37,2013-01-17 07:18:00,
2013-01-17 01:23:00,32.4,23.4,30.30,WNW,301,0.2,1.2,69,0.00,CLR,,0.00,WeatherDisplay:10.37,2013-01-17 07:23:00,
2013-01-17 01:28:00,32.5,23.5,30.30,WNW,301,0.0,0.0,69,0.00,CLR,,0.00,WeatherDisplay:10.37,2013-01-17 07:28:00,
2013-01-17 01:33:00,32.6,23.2,30.30,WNW,301,0.7,2.0,68,0.00,CLR,,0.00,WeatherDisplay:10.37,2013-01-17 07:33:00,
2013-01-17 01:38:00,32.8,23.4,30.30,WNW,301,0.2,1.2,68,0.00,CLR,,0.00,WeatherDisplay:10.37,2013-01-17 07:38:00,
2013-01-17 01:43:00,32.9,23.5,30.31,WNW,300,2.0,3.5,68,0.00,CLR,,0.00,WeatherDisplay:10.37,2013-01-17 07:43:00,
2013-01-17 01:48:00,33.0,23.6,30.30,WNW,300,0.1,3.5,68,0.00,CLR,,0.00,WeatherDisplay:10.37,2013-01-17 07:48:00,
2013-01-17 01:53:00,33.1,23.7,30.30,WNW,300,0.9,0.0,68,0.00,CLR,,0.00,WeatherDisplay:10.37,2013-01-17 07:53:00,
2013-01-17 01:58:00,33.2,23.8,30.30,WNW,300,1.7,3.5,68,0.00,CLR,,0.00,WeatherDisplay:10.37,2013-01-17 07:58:00,
2013-01-17 02:03:00,33.3,23.9,30.30,WNW,300,0.6,2.3,68,0.00,CLR,,0.00,WeatherDisplay:10.37,2013-01-17 08:03:00,
2013-01-17 02:08:00,33.4,23.6,30.30,WNW,300,0.0,0.0,67,0.00,CLR,,0.00,WeatherDisplay:10.37,2013-01-17 08:08:00,
2013-01-17 02:13:00,33.5,23.7,30.30,WNW,300,0.0,0.0,67,0.00,CLR,,0.00,WeatherDisplay:10.37,2013-01-17 08:13:00,
2013-01-17 02:18:00,33.6,24.2,30.30,WNW,300,0.3,0.0,68,0.00,CLR,,0.00,WeatherDisplay:10.37,2013-01-17 08:18:00,
2013-01-17 02:23:00,33.7,23.9,30.30,WNW,300,1.1,2.3,67,0.00,CLR,,0.00,WeatherDisplay:10.37,2013-01-17 08:23:00,
2013-01-17 02:28:00,33.9,23.7,30.30,WNW,300,0.5,3.5,66,0.00,CLR,,0.00,WeatherDisplay:10.37,2013-01-17 08:28:00,
2013-01-17 02:33:00,33.9,23.7,30.30,WNW,300,0.3,3.5,66,0.00,CLR,,0.00,WeatherDisplay:10.37,2013-01-17 08:33:00,
2013-01-17 02:38:00,34.0,23.8,30.30,WNW,300,0.5,2.3,66,0.00,CLR,,0.00,WeatherDisplay:10.37,2013-01-17 08:38:00,
2013-01-17 02:43:00,34.0,23.8,30.30,WNW,301,0.0,3.5,66,0.00,CLR,,0.00,WeatherDisplay:10.37,2013-01-17 08:43:00,
2013-01-17 02:48:00,34.0,23.8,30.30,WNW,302,0.2,2.3,66,0.00,CLR,,0.00,WeatherDisplay:10.37,2013-01-17 08:48:00,
2013-01-17 02:53:00,34.1,24.3,30.30,WNW,302,1.1,2.3,67,0.00,CLR,,0.00,WeatherDisplay:10.37,2013-01-17 08:53:00,
2013-01-17 02:58:00,34.1,24.3,30.30,WNW,302,0.1,2.3,67,0.00,CLR,,0.00,WeatherDisplay:10.37,2013-01-17 08:58:00,
2013-01-17 03:03:00,34.0,24.5,30.30,WNW,302,0.7,3.5,68,0.00,CLR,,0.00,WeatherDisplay:10.37,2013-01-17 09:03:00,
2013-01-17 03:08:00,33.9,24.4,30.31,WNW,302,0.9,1.2,68,0.00,CLR,,0.00,WeatherDisplay:10.37,2013-01-17 09:08:00,
2013-01-17 03:13:00,33.8,24.7,30.31,WNW,302,0.1,3.5,69,0.00,CLR,,0.00,WeatherDisplay:10.37,2013-01-17 09:13:00,
2013-01-17 03:18:00,33.7,24.6,30.31,WNW,302,1.3,3.5,69,0.00,CLR,,0.00,WeatherDisplay:10.37,2013-01-17 09:18:00,
2013-01-17 03:23:00,33.6,24.5,30.31,WNW,302,0.6,2.3,69,0.00,CLR,,0.00,WeatherDisplay:10.37,2013-01-17 09:23:00,
2013-01-17 03:28:00,33.5,24.8,30.31,WNW,302,0.4,2.3,70,0.00,CLR,,0.00,WeatherDisplay:10.37,2013-01-17 09:28:00,
2013-01-17 03:33:00,33.6,24.9,30.31,WNW,302,1.1,2.3,70,0.00,CLR,,0.00,WeatherDisplay:10.37,2013-01-17 09:33:00,
2013-01-17 03:38:00,33.6,25.2,30.31,WNW,302,0.4,2.3,71,0.00,CLR,,0.00,WeatherDisplay:10.37,2013-01-17 09:38:00,
2013-01-17 03:43:00,33.6,25.2,30.31,WNW,302,0.5,2.3,71,0.00,CLR,,0.00,WeatherDisplay:10.37,2013-01-17 09:43:00,
2013-01-17 03:48:00,33.6,25.2,30.31,WNW,302,2.0,2.3,71,0.00,CLR,,0.00,WeatherDisplay:10.37,2013-01-17 09:48:00,
2013-01-17 03:53:00,33.6,25.5,30.31,WNW,302,1.1,2.3,72,0.00,CLR,,0.00,WeatherDisplay:10.37,2013-01-17 09:53:00,
2013-01-17 03:58:00,33.7,25.6,30.31,WNW,302,0.1,2.3,72,0.00,CLR,,0.00,WeatherDisplay:10.37,2013-01-17 09:58:00,
2013-01-17 04:03:00,33.8,25.7,30.31,WNW,302,0.8,3.5,72,0.00,CLR,,0.00,WeatherDisplay:10.37,2013-01-17 10:03:00,
2013-01-17 04:08:00,33.8,25.7,30.31,WNW,302,1.2,3.5,72,0.00,CLR,,0.00,WeatherDisplay:10.37,2013-01-17 10:08:00,
2013-01-17 04:13:00,33.9,25.8,30.31,NW,305,1.8,3.5,72,0.00,CLR,,0.00,WeatherDisplay:10.37,2013-01-17 10:13:00,
2013-01-17 04:18:00,34.0,25.9,30.31,NW,304,1.1,3.5,72,0.00,CLR,,0.00,WeatherDisplay:10.37,2013-01-17 10:18:00,
2013-01-17 04:23:00,34.1,26.0,30.31,NW,308,1.5,5.8,72,0.00,CLR,,0.00,WeatherDisplay:10.37,2013-01-17 10:23:00,
2013-01-17 04:28:00,34.3,26.2,30.31,WNW,292,2.4,3.5,72,0.00,CLR,,0.00,WeatherDisplay:10.37,2013-01-17 10:28:00,
2013-01-17 04:33:00,34.4,26.3,30.31,NW,306,1.3,4.6,72,0.00,CLR,,0.00,WeatherDisplay:10.37,2013-01-17 10:33:00,
2013-01-17 04:38:00,34.6,26.5,30.31,NW,314,2.4,4.6,72,0.00,CLR,,0.00,WeatherDisplay:10.37,2013-01-17 10:38:00,
2013-01-17 04:43:00,34.7,26.6,30.32,NW,304,0.4,0.0,72,0.00,CLR,,0.00,WeatherDisplay:10.37,2013-01-17 10:43:00,
2013-01-17 04:48:00,34.8,26.7,30.32,NW,307,0.9,1.2,72,0.00,CLR,,0.00,WeatherDisplay:10.37,2013-01-17 10:48:00,
2013-01-17 04:53:00,34.8,26.7,30.32,WNW,290,1.1,3.5,72,0.00,CLR,,0.00,WeatherDisplay:10.37,2013-01-17 10:53:00,
2013-01-17 04:58:00,34.8,26.7,30.33,NW,314,0.0,0.0,72,0.00,CLR,,0.00,WeatherDisplay:10.37,2013-01-17 10:58:00,
2013-01-17 05:03:00,34.6,26.5,30.33,NW,314,0.0,0.0,72,0.00,CLR,,0.00,WeatherDisplay:10.37,2013-01-17 11:03:00,
2013-01-17 05:08:00,34.3,26.2,30.33,NW,314,0.0,0.0,72,0.00,CLR,,0.00,WeatherDisplay:10.37,2013-01-17 11:08:00,
2013-01-17 05:13:00,34.2,26.1,30.33,NW,314,0.0,0.0,72,0.00,CLR,,0.00,WeatherDisplay:10.37,2013-01-17 11:13:00,
2013-01-17 05:18:00,34.0,26.3,30.33,NW,314,0.0,0.0,73,0.00,CLR,,0.00,WeatherDisplay:10.37,2013-01-17 11:18:00,
2013-01-17 05:23:00,33.9,26.2,30.33,NW,314,0.0,0.0,73,0.00,CLR,,0.00,WeatherDisplay:10.37,2013-01-17 11:23:00,
2013-01-17 05:28:00,33.7,26.3,30.33,NW,314,0.0,0.0,74,0.00,CLR,,0.00,WeatherDisplay:10.37,2013-01-17 11:28:00,
2013-01-17 05:33:00,33.6,26.2,30.33,NW,314,0.0,0.0,74,0.00,CLR,,0.00,WeatherDisplay:10.37,2013-01-17 11:33:00,
2013-01-17 05:38:00,33.4,26.3,30.33,NW,314,0.0,0.0,75,0.00,CLR,,0.00,WeatherDisplay:10.37,2013-01-17 11:38:00,
2013-01-17 05:43:00,33.2,26.1,30.33,NW,314,0.0,0.0,75,0.00,CLR,,0.00,WeatherDisplay:10.37,2013-01-17 11:43:00,
2013-01-17 05:48:00,33.2,26.8,30.34,NW,314,0.9,1.2,77,0.00,CLR,,0.00,WeatherDisplay:10.37,2013-01-17 11:48:00,
2013-01-17 05:53:00,33.4,27.0,30.34,NW,305,0.7,3.5,77,0.00,CLR,,0.00,WeatherDisplay:10.37,2013-01-17 11:53:00,
2013-01-17 05:58:00,33.8,27.7,30.34,WNW,298,1.9,3.5,78,0.00,CLR,,0.00,WeatherDisplay:10.37,2013-01-17 11:58:00,
2013-01-17 06:03:00,34.2,27.7,30.34,WNW,298,0.2,2.3,77,0.00,CLR,,0.00,WeatherDisplay:10.37,2013-01-17 12:03:00,
2013-01-17 06:08:00,34.4,27.6,30.34,WNW,298,0.0,1.2,76,0.00,CLR,,0.00,WeatherDisplay:10.37,2013-01-17 12:08:00,
2013-01-17 06:13:00,34.6,27.8,30.35,WNW,298,0.2,2.0,76,0.00,CLR,,0.00,WeatherDisplay:10.37,2013-01-17 12:13:00,
2013-01-17 06:18:00,34.7,27.9,30.35,NW,309,1.4,3.5,76,0.00,CLR,,0.00,WeatherDisplay:10.37,2013-01-17 12:18:00,
2013-01-17 06:23:00,35.0,28.2,30.35,WNW,294,1.2,3.5,76,0.00,CLR,,0.00,WeatherDisplay:10.37,2013-01-17 12:23:00,
2013-01-17 06:28:00,35.1,28.3,30.36,WNW,293,0.2,3.5,76,0.00,CLR,,0.00,WeatherDisplay:10.37,2013-01-17 12:28:00,
2013-01-17 06:33:00,35.1,28.3,30.36,WNW,295,0.0,2.3,76,0.00,CLR,,0.00,WeatherDisplay:10.37,2013-01-17 12:33:00,
2013-01-17 06:38:00,35.0,27.9,30.36,WNW,295,0.0,0.0,75,0.00,CLR,,0.00,WeatherDisplay:10.37,2013-01-17 12:38:00,
2013-01-17 06:43:00,34.8,28.0,30.36,NW,307,0.2,3.5,76,0.00,CLR,,0.00,WeatherDisplay:10.37,2013-01-17 12:43:00,
2013-01-17 06:48:00,34.7,27.9,30.36,NW,304,1.3,3.5,76,0.00,CLR,,0.00,WeatherDisplay:10.37,2013-01-17 12:48:00,
2013-01-17 06:53:00,34.8,28.3,30.36,WNW,302,0.0,2.3,77,0.00,CLR,,0.00,WeatherDisplay:10.37,2013-01-17 12:53:00,
2013-01-17 06:58:00,34.9,28.7,30.36,NW,306,1.7,3.5,78,0.00,CLR,,0.00,WeatherDisplay:10.37,2013-01-17 12:58:00,
2013-01-17 07:03:00,35.1,28.9,30.36,WNW,303,1.3,2.3,78,0.00,CLR,,0.00,WeatherDisplay:10.37,2013-01-17 13:03:00,
2013-01-17 07:08:00,35.3,29.1,30.36,WNW,303,0.8,1.2,78,0.00,CLR,,0.00,WeatherDisplay:10.37,2013-01-17 13:08:00,
2013-01-17 07:14:00,35.4,29.2,30.37,WNW,298,0.8,2.3,78,0.00,CLR,,0.00,WeatherDisplay:10.37,2013-01-17 13:14:00,
2013-01-17 07:19:00,35.4,29.2,30.37,WNW,298,0.0,2.3,78,0.00,CLR,,0.00,WeatherDisplay:10.37,2013-01-17 13:19:00,
2013-01-17 07:24:00,35.5,29.0,30.37,WNW,298,0.1,2.3,77,0.00,CLR,,0.00,WeatherDisplay:10.37,2013-01-17 13:24:00,
2013-01-17 07:29:00,35.5,29.0,30.37,WNW,298,1.1,2.3,77,0.00,CLR,,0.00,WeatherDisplay:10.37,2013-01-17 13:29:00,
2013-01-17 07:34:00,35.6,29.1,30.37,NW,305,2.9,3.0,77,0.00,CLR,,0.00,WeatherDisplay:10.37,2013-01-17 13:34:00,
2013-01-17 07:39:00,35.6,29.4,30.37,WNW,297,3.3,4.0,78,0.00,CLR,,0.00,WeatherDisplay:10.37,2013-01-17 13:39:00,
2013-01-17 07:44:00,35.7,29.5,30.37,NW,323,2.6,3.0,78,0.00,CLR,,0.00,WeatherDisplay:10.37,2013-01-17 13:44:00,
2013-01-17 07:49:00,35.9,29.7,30.38,NNW,331,1.5,4.6,78,0.00,CLR,,0.00,WeatherDisplay:10.37,2013-01-17 13:49:00,
2013-01-17 07:54:00,36.2,30.0,30.38,NW,305,0.5,4.6,78,0.00,CLR,,0.00,WeatherDisplay:10.37,2013-01-17 13:54:00,
2013-01-17 07:59:00,36.5,30.3,30.38,West,268,2.1,4.6,78,0.00,CLR,,0.00,WeatherDisplay:10.37,2013-01-17 13:59:00,
2013-01-17 08:04:00,36.9,30.7,30.38,NW,324,3.1,6.9,78,0.00,CLR,,0.00,WeatherDisplay:10.37,2013-01-17 14:04:00,
2013-01-17 08:09:00,37.5,30.9,30.38,NW,308,2.8,4.6,77,0.00,CLR,,0.00,WeatherDisplay:10.37,2013-01-17 14:09:00,
2013-01-17 08:14:00,38.1,31.2,30.38,WNW,301,1.1,4.6,76,0.00,CLR,,0.00,WeatherDisplay:10.37,2013-01-17 14:14:00,
2013-01-17 08:19:00,38.7,31.8,30.38,WNW,290,3.0,3.5,76,0.00,CLR,,0.00,WeatherDisplay:10.37,2013-01-17 14:19:00,
2013-01-17 08:24:00,39.3,32.0,30.38,WNW,285,3.6,8.0,75,0.00,CLR,,0.00,WeatherDisplay:10.37,2013-01-17 14:24:00,
2013-01-17 08:29:00,40.1,32.1,30.39,NW,312,1.9,3.5,73,0.00,CLR,,0.00,WeatherDisplay:10.37,2013-01-17 14:29:00,
2013-01-17 08:34:00,40.7,32.4,30.39,NW,326,1.6,4.0,72,0.00,CLR,,0.00,WeatherDisplay:10.37,2013-01-17 14:34:00,
2013-01-17 08:39:00,41.4,32.7,30.39,WNW,289,3.2,3.5,71,0.00,CLR,,0.00,WeatherDisplay:10.37,2013-01-17 14:39:00,
2013-01-17 08:44:00,42.1,33.0,30.39,NW,313,1.5,5.8,70,0.00,CLR,,0.00,WeatherDisplay:10.37,2013-01-17 14:44:00,
2013-01-17 08:49:00,42.6,33.1,30.40,West,274,2.8,2.8,69,0.00,CLR,,0.00,WeatherDisplay:10.37,2013-01-17 14:49:00,
2013-01-17 08:54:00,43.1,33.3,30.40,NW,321,2.0,4.6,68,0.00,CLR,,0.00,WeatherDisplay:10.37,2013-01-17 14:54:00,
2013-01-17 08:59:00,43.7,33.5,30.40,NW,326,2.4,8.1,67,0.00,CLR,,0.00,WeatherDisplay:10.37,2013-01-17 14:59:00,
2013-01-17 09:04:00,44.2,33.6,30.40,WNW,286,1.4,3.5,66,0.00,CLR,,0.00,WeatherDisplay:10.37,2013-01-17 15:04:00,
2013-01-17 09:09:00,44.8,34.1,30.41,NNW,340,1.5,4.0,66,0.00,CLR,,0.00,WeatherDisplay:10.37,2013-01-17 15:09:00,
2013-01-17 09:14:00,45.4,34.3,30.41,NW,309,2.0,3.5,65,0.00,CLR,,0.00,WeatherDisplay:10.37,2013-01-17 15:14:00,
2013-01-17 09:19:00,46.1,34.2,30.41,NW,304,3.0,5.8,63,0.00,CLR,,0.00,WeatherDisplay:10.37,2013-01-17 15:19:00,
2013-01-17 09:24:00,46.8,34.9,30.41,WNW,302,2.5,3.5,63,0.00,CLR,,0.00,WeatherDisplay:10.37,2013-01-17 15:24:00,
2013-01-17 09:29:00,47.3,34.9,30.42,NW,306,2.1,3.5,62,0.00,CLR,,0.00,WeatherDisplay:10.37,2013-01-17 15:29:00,
2013-01-17 09:34:00,47.9,35.1,30.42,NNW,337,2.4,4.6,61,0.00,CLR,,0.00,WeatherDisplay:10.37,2013-01-17 15:34:00,
2013-01-17 09:39:00,48.6,35.3,30.42,North,355,2.1,4.6,60,0.00,CLR,,0.00,WeatherDisplay:10.37,2013-01-17 15:39:00,
2013-01-17 09:44:00,49.2,35.5,30.43,WNW,292,2.2,9.2,59,0.00,CLR,,0.00,WeatherDisplay:10.37,2013-01-17 15:44:00,
2013-01-17 09:49:00,49.9,35.7,30.43,NW,320,2.0,3.5,58,0.00,CLR,,0.00,WeatherDisplay:10.37,2013-01-17 15:49:00,
2013-01-17 09:54:00,50.5,35.8,30.43,SSW,210,1.1,3.5,57,0.00,CLR,,0.00,WeatherDisplay:10.37,2013-01-17 15:54:00,
2013-01-17 09:59:00,51.0,36.3,30.44,NNW,328,1.8,3.5,57,0.00,CLR,,0.00,WeatherDisplay:10.37,2013-01-17 15:59:00,
2013-01-17 10:04:00,51.5,36.3,30.44,North,360,0.9,3.0,56,0.00,CLR,,0.00,WeatherDisplay:10.37,2013-01-17 16:04:00,
2013-01-17 10:09:00,52.0,36.3,30.44,WNW,292,0.4,3.5,55,0.00,CLR,,0.00,WeatherDisplay:10.37,2013-01-17 16:09:00,
2013-01-17 10:14:00,52.4,36.7,30.44,NW,319,0.8,3.5,55,0.00,CLR,,0.00,WeatherDisplay:10.37,2013-01-17 16:14:00,
2013-01-17 10:19:00,52.8,37.1,30.44,NW,326,0.2,0.0,55,0.00,CLR,,0.00,WeatherDisplay:10.37,2013-01-17 16:19:00,
2013-01-17 10:24:00,53.4,36.7,30.44,NW,308,2.8,3.5,53,0.00,CLR,,0.00,WeatherDisplay:10.37,2013-01-17 16:24:00,
2013-01-17 10:29:00,53.9,36.7,30.44,WNW,296,0.1,3.5,52,0.00,CLR,,0.00,WeatherDisplay:10.37,2013-01-17 16:29:00,
2013-01-17 10:34:00,54.3,37.0,30.44,NNW,327,3.2,4.6,52,0.00,CLR,,0.00,WeatherDisplay:10.37,2013-01-17 16:34:00,
2013-01-17 10:39:00,54.8,37.5,30.44,NE,38,1.7,3.5,52,0.00,CLR,,0.00,WeatherDisplay:10.37,2013-01-17 16:39:00,
2013-01-17 10:44:00,55.1,37.3,30.44,NW,312,1.1,3.5,51,0.00,CLR,,0.00,WeatherDisplay:10.37,2013-01-17 16:44:00,
2013-01-17 10:49:00,55.5,37.7,30.44,NW,311,0.7,3.5,51,0.00,CLR,,0.00,WeatherDisplay:10.37,2013-01-17 16:49:00,
2013-01-17 10:54:00,56.2,37.3,30.44,ENE,74,1.0,2.3,49,0.00,CLR,,0.00,WeatherDisplay:10.37,2013-01-17 16:54:00,
2013-01-17 10:59:00,56.7,36.7,30.44,North,350,2.0,3.5,47,0.00,CLR,,0.00,WeatherDisplay:10.37,2013-01-17 16:59:00,
2013-01-17 11:04:00,57.3,37.8,30.44,North,9,1.1,2.0,48,0.00,CLR,,0.00,WeatherDisplay:10.37,2013-01-17 17:04:00,
2013-01-17 11:09:00,57.9,37.2,30.44,NE,53,2.6,4.0,46,0.00,CLR,,0.00,WeatherDisplay:10.37,2013-01-17 17:09:00,
2013-01-17 11:14:00,58.2,36.4,30.43,North,350,1.7,4.6,44,0.00,CLR,,0.00,WeatherDisplay:10.37,2013-01-17 17:14:00,
2013-01-17 11:19:00,58.5,36.6,30.43,NNE,28,2.0,3.5,44,0.00,CLR,,0.00,WeatherDisplay:10.37,2013-01-17 17:19:00,
2013-01-17 11:24:00,58.8,36.9,30.43,NE,40,2.1,3.5,44,0.00,CLR,,0.00,WeatherDisplay:10.37,2013-01-17 17:24:00,
2013-01-17 11:29:00,58.9,37.0,30.43,NW,315,1.2,4.6,44,0.00,CLR,,0.00,WeatherDisplay:10.37,2013-01-17 17:29:00,
2013-01-17 11:34:00,59.0,37.1,30.43,NNW,333,0.9,2.0,44,0.00,CLR,,0.00,WeatherDisplay:10.37,2013-01-17 17:34:00,
2013-01-17 11:39:00,59.2,37.3,30.43,North,349,1.2,4.0,44,0.00,CLR,,0.00,WeatherDisplay:10.37,2013-01-17 17:39:00,
2013-01-17 11:44:00,59.4,36.9,30.43,NNW,348,1.0,3.5,43,0.00,CLR,,0.00,WeatherDisplay:10.37,2013-01-17 17:44:00,
2013-01-17 11:49:00,59.5,37.0,30.42,NE,54,0.4,3.5,43,0.00,CLR,,0.00,WeatherDisplay:10.37,2013-01-17 17:49:00,
2013-01-17 11:54:00,59.7,36.6,30.42,NNE,26,0.2,4.6,42,0.00,CLR,,0.00,WeatherDisplay:10.37,2013-01-17 17:54:00,
2013-01-17 11:59:00,59.8,37.8,30.42,NNE,15,0.2,3.5,44,0.00,CLR,,0.00,WeatherDisplay:10.37,2013-01-17 17:59:00,
2013-01-17 12:04:00,60.2,37.0,30.42,North,10,1.9,5.8,42,0.00,CLR,,0.00,WeatherDisplay:10.37,2013-01-17 18:04:00,
2013-01-17 12:09:00,60.4,35.9,30.41,NW,306,3.0,4.6,40,0.00,CLR,,0.00,WeatherDisplay:10.37,2013-01-17 18:09:00,
2013-01-17 12:14:00,60.7,36.8,30.41,North,5,0.7,3.5,41,0.00,CLR,,0.00,WeatherDisplay:10.37,2013-01-17 18:14:00,
2013-01-17 12:19:00,60.8,36.3,30.41,North,355,1.6,5.0,40,0.00,CLR,,0.00,WeatherDisplay:10.37,2013-01-17 18:19:00,
2013-01-17 12:24:00,61.0,36.5,30.41,North,9,0.8,2.3,40,0.00,CLR,,0.00,WeatherDisplay:10.37,2013-01-17 18:24:00,
2013-01-17 12:29:00,61.1,35.9,30.41,NE,40,2.0,5.8,39,0.00,CLR,,0.00,WeatherDisplay:10.37,2013-01-17 18:29:00,
2013-01-17 12:34:00,61.2,36.7,30.40,SE,144,0.1,5.8,40,0.00,CLR,,0.00,WeatherDisplay:10.37,2013-01-17 18:34:00,
2013-01-17 12:39:00,61.2,36.7,30.40,NNW,340,0.2,3.5,40,0.00,CLR,,0.00,WeatherDisplay:10.37,2013-01-17 18:39:00,
2013-01-17 12:44:00,61.4,36.2,30.40,NNW,332,2.1,2.3,39,0.00,CLR,,0.00,WeatherDisplay:10.37,2013-01-17 18:44:00,
2013-01-17 12:49:00,61.6,35.7,30.39,North,355,1.6,5.8,38,0.00,CLR,,0.00,WeatherDisplay:10.37,2013-01-17 18:49:00,
2013-01-17 12:54:00,61.9,36.0,30.39,North,355,2.4,4.6,38,0.00,CLR,,0.00,WeatherDisplay:10.37,2013-01-17 18:54:00,
2013-01-17 12:59:00,62.1,35.5,30.39,NW,306,2.1,5.8,37,0.00,CLR,,0.00,WeatherDisplay:10.37,2013-01-17 18:59:00,
2013-01-17 13:04:00,62.3,36.4,30.38,East,91,0.9,1.2,38,0.00,CLR,,0.00,WeatherDisplay:10.37,2013-01-17 19:04:00,
2013-01-17 13:09:00,62.5,35.9,30.38,NNW,337,3.1,6.9,37,0.00,CLR,,0.00,WeatherDisplay:10.37,2013-01-17 19:09:00,
2013-01-17 13:14:00,62.6,36.6,30.38,NE,45,1.3,5.8,38,0.00,CLR,,0.00,WeatherDisplay:10.37,2013-01-17 19:14:00,
2013-01-17 13:19:00,62.8,36.8,30.38,NW,320,3.0,3.5,38,0.00,CLR,,0.00,WeatherDisplay:10.37,2013-01-17 19:19:00,
2013-01-17 13:24:00,63.0,35.6,30.38,North,360,1.7,3.5,36,0.00,CLR,,0.00,WeatherDisplay:10.37,2013-01-17 19:24:00,
2013-01-17 13:29:00,63.1,36.4,30.37,NNE,12,1.8,8.1,37,0.00,CLR,,0.00,WeatherDisplay:10.37,2013-01-17 19:29:00,
2013-01-17 13:34:00,63.2,35.8,30.37,WNW,303,0.3,2.3,36,0.00,CLR,,0.00,WeatherDisplay:10.37,2013-01-17 19:34:00,
2013-01-17 13:39:00,63.5,36.0,30.37,NE,53,2.6,3.5,36,0.00,CLR,,0.00,WeatherDisplay:10.37,2013-01-17 19:39:00,
2013-01-17 13:44:00,63.7,35.5,30.36,NE,48,1.8,6.0,35,0.00,CLR,,0.00,WeatherDisplay:10.37,2013-01-17 19:44:00,
2013-01-17 13:49:00,63.8,35.6,30.36,NNW,343,3.7,5.8,35,0.00,CLR,,0.00,WeatherDisplay:10.37,2013-01-17 19:49:00,
2013-01-17 13:54:00,63.9,36.4,30.36,NNE,13,0.2,1.2,36,0.00,CLR,,0.00,WeatherDisplay:10.37,2013-01-17 19:54:00,
2013-01-17 13:59:00,64.1,35.9,30.36,NW,317,1.4,4.6,35,0.00,CLR,,0.00,WeatherDisplay:10.37,2013-01-17 19:59:00,
2013-01-17 14:04:00,64.4,36.1,30.36,NNW,347,0.2,2.3,35,0.00,CLR,,0.00,WeatherDisplay:10.37,2013-01-17 20:04:00,
2013-01-17 14:09:00,64.6,36.3,30.35,NNE,23,1.6,4.6,35,0.00,CLR,,0.00,WeatherDisplay:10.37,2013-01-17 20:09:00,
2013-01-17 14:14:00,64.8,36.5,30.35,NNW,337,2.4,3.5,35,0.00,CLR,,0.00,WeatherDisplay:10.37,2013-01-17 20:14:00,
2013-01-17 14:19:00,65.0,35.9,30.35,NNW,342,0.1,6.9,34,0.00,CLR,,0.00,WeatherDisplay:10.37,2013-01-17 20:19:00,
2013-01-17 14:24:00,65.2,35.4,30.35,North,360,1.6,4.6,33,0.00,CLR,,0.00,WeatherDisplay:10.37,2013-01-17 20:24:00,
2013-01-17 14:29:00,65.0,35.9,30.35,NE,49,1.3,3.5,34,0.00,CLR,,0.00,WeatherDisplay:10.37,2013-01-17 20:29:00,
2013-01-17 14:34:00,65.1,36.8,30.35,ENE,69,0.2,1.0,35,0.00,CLR,,0.00,WeatherDisplay:10.37,2013-01-17 20:34:00,
2013-01-17 14:39:00,65.2,36.1,30.35,North,355,0.6,3.5,34,0.00,CLR,,0.00,WeatherDisplay:10.37,2013-01-17 20:39:00,
2013-01-17 14:44:00,65.4,35.5,30.35,NNW,338,2.5,3.5,33,0.00,CLR,,0.00,WeatherDisplay:10.37,2013-01-17 20:44:00,
2013-01-17 14:49:00,65.7,35.8,30.35,NNW,340,1.8,3.5,33,0.00,CLR,,0.00,WeatherDisplay:10.37,2013-01-17 20:49:00,
2013-01-17 14:54:00,65.9,36.0,30.35,ESE,112,1.6,6.0,33,0.00,CLR,,0.00,WeatherDisplay:10.37,2013-01-17 20:54:00,
2013-01-17 14:59:00,66.0,36.8,30.35,ENE,61,1.5,3.5,34,0.00,CLR,,0.00,WeatherDisplay:10.37,2013-01-17 20:59:00,
2013-01-17 15:04:00,66.4,36.4,30.35,NE,54,1.1,0.0,33,0.00,CLR,,0.00,WeatherDisplay:10.37,2013-01-17 21:04:00,
2013-01-17 15:09:00,66.4,36.4,30.35,NNE,16,1.4,3.5,33,0.00,CLR,,0.00,WeatherDisplay:10.37,2013-01-17 21:09:00,
2013-01-17 15:14:00,66.4,35.6,30.35,ESE,110,0.6,4.6,32,0.00,CLR,,0.00,WeatherDisplay:10.37,2013-01-17 21:14:00,
2013-01-17 15:19:00,66.5,36.5,30.35,NNW,342,1.0,5.8,33,0.00,CLR,,0.00,WeatherDisplay:10.37,2013-01-17 21:19:00,
2013-01-17 15:24:00,66.4,35.6,30.36,ENE,67,2.1,3.5,32,0.00,CLR,,0.00,WeatherDisplay:10.37,2013-01-17 21:24:00,
2013-01-17 15:29:00,66.4,35.6,30.36,NE,46,0.4,5.8,32,0.00,CLR,,0.00,WeatherDisplay:10.37,2013-01-17 21:29:00,
2013-01-17 15:34:00,66.5,36.5,30.36,NNW,333,0.2,3.5,33,0.00,CLR,,0.00,WeatherDisplay:10.37,2013-01-17 21:34:00,
2013-01-17 15:39:00,66.5,35.7,30.36,North,349,2.0,3.5,32,0.00,CLR,,0.00,WeatherDisplay:10.37,2013-01-17 21:39:00,
2013-01-17 15:44:00,66.5,35.7,30.36,NE,55,0.6,3.0,32,0.00,CLR,,0.00,WeatherDisplay:10.37,2013-01-17 21:44:00,
2013-01-17 15:49:00,66.4,35.6,30.36,NW,313,3.1,4.6,32,0.00,CLR,,0.00,WeatherDisplay:10.37,2013-01-17 21:49:00,
2013-01-17 15:54:00,66.2,36.2,30.36,WNW,302,2.0,2.3,33,0.00,CLR,,0.00,WeatherDisplay:10.37,2013-01-17 21:54:00,
2013-01-17 15:59:00,66.3,36.3,30.36,NNE,32,0.8,3.5,33,0.00,CLR,,0.00,WeatherDisplay:10.37,2013-01-17 21:59:00,
2013-01-17 16:04:00,66.3,36.3,30.37,North,355,4.2,4.6,33,0.00,CLR,,0.00,WeatherDisplay:10.37,2013-01-17 22:04:00,
2013-01-17 16:09:00,66.2,35.4,30.37,North,351,0.6,3.5,32,0.00,CLR,,0.00,WeatherDisplay:10.37,2013-01-17 22:09:00,
2013-01-17 16:14:00,66.0,36.8,30.37,NNE,25,0.3,2.3,34,0.00,CLR,,0.00,WeatherDisplay:10.37,2013-01-17 22:14:00,
2013-01-17 16:19:00,65.9,36.0,30.37,NE,36,1.0,2.3,33,0.00,CLR,,0.00,WeatherDisplay:10.37,2013-01-17 22:19:00,
2013-01-17 16:24:00,65.7,35.8,30.37,North,355,0.9,3.5,33,0.00,CLR,,0.00,WeatherDisplay:10.37,2013-01-17 22:24:00,
2013-01-17 16:29:00,65.4,35.5,30.37,NE,41,0.4,2.3,33,0.00,CLR,,0.00,WeatherDisplay:10.37,2013-01-17 22:29:00,
2013-01-17 16:34:00,65.2,36.1,30.37,West,278,2.1,6.0,34,0.00,CLR,,0.00,WeatherDisplay:10.37,2013-01-17 22:34:00,
2013-01-17 16:39:00,64.9,35.8,30.37,NNW,329,0.7,2.3,34,0.00,CLR,,0.00,WeatherDisplay:10.37,2013-01-17 22:39:00,
2013-01-17 16:44:00,64.6,35.6,30.37,NNW,332,0.0,0.0,34,0.00,CLR,,0.00,WeatherDisplay:10.37,2013-01-17 22:44:00,
2013-01-17 16:49:00,64.4,36.8,30.37,ENE,73,0.1,1.0,36,0.00,CLR,,0.00,WeatherDisplay:10.37,2013-01-17 22:49:00,
2013-01-17 16:54:00,64.1,36.6,30.37,NW,305,0.7,3.5,36,0.00,CLR,,0.00,WeatherDisplay:10.37,2013-01-17 22:54:00,
2013-01-17 16:59:00,63.9,35.7,30.37,NW,315,0.0,0.0,35,0.00,CLR,,0.00,WeatherDisplay:10.37,2013-01-17 22:59:00,
2013-01-17 17:04:00,63.7,36.2,30.38,NNW,339,0.0,0.0,36,0.00,CLR,,0.00,WeatherDisplay:10.37,2013-01-17 23:04:00,
2013-01-17 17:09:00,63.5,35.3,30.38,NNW,329,0.0,1.2,35,0.00,CLR,,0.00,WeatherDisplay:10.37,2013-01-17 23:09:00,
2013-01-17 17:14:00,63.4,36.0,30.38,NNW,329,0.0,1.2,36,0.00,CLR,,0.00,WeatherDisplay:10.37,2013-01-17 23:14:00,
2013-01-17 17:19:00,63.2,35.1,30.38,NNW,329,0.0,1.2,35,0.00,CLR,,0.00,WeatherDisplay:10.37,2013-01-17 23:19:00,
2013-01-17 17:24:00,63.0,34.9,30.38,NNW,329,0.0,0.0,35,0.00,CLR,,0.00,WeatherDisplay:10.37,2013-01-17 23:24:00,
2013-01-17 17:29:00,62.8,35.4,30.38,NNW,329,0.0,1.2,36,0.00,CLR,,0.00,WeatherDisplay:10.37,2013-01-17 23:29:00,
2013-01-17 17:34:00,62.6,35.3,30.38,NNW,329,0.0,0.0,36,0.00,CLR,,0.00,WeatherDisplay:10.37,2013-01-17 23:34:00,
2013-01-17 17:39:00,62.3,35.0,30.38,NNW,329,0.0,0.0,36,0.00,CLR,,0.00,WeatherDisplay:10.37,2013-01-17 23:39:00,
2013-01-17 17:44:00,62.2,35.6,30.39,NNW,329,0.0,0.0,37,0.00,CLR,,0.00,WeatherDisplay:10.37,2013-01-17 23:44:00,
2013-01-17 17:49:00,61.9,36.0,30.39,NNW,329,0.0,0.0,38,0.00,CLR,,0.00,WeatherDisplay:10.37,2013-01-17 23:49:00,
2013-01-17 17:54:00,61.5,36.3,30.39,NNW,329,0.0,0.0,39,0.00,CLR,,0.00,WeatherDisplay:10.37,2013-01-17 23:54:00,
2013-01-17 17:59:00,61.2,36.7,30.39,NNW,329,0.0,0.0,40,0.00,CLR,,0.00,WeatherDisplay:10.37,2013-01-17 23:59:00,
2013-01-17 18:04:00,60.8,36.3,30.39,NNW,329,0.0,0.0,40,0.00,CLR,,0.00,WeatherDisplay:10.37,2013-01-18 00:04:00,
2013-01-17 18:09:00,60.4,36.6,30.39,NNW,329,0.0,0.0,41,0.00,CLR,,0.00,WeatherDisplay:10.37,2013-01-18 00:09:00,
2013-01-17 18:14:00,59.8,36.6,30.39,NNW,329,0.0,0.0,42,0.00,CLR,,0.00,WeatherDisplay:10.37,2013-01-18 00:14:00,
2013-01-17 18:19:00,59.2,36.1,30.40,NNW,329,0.0,0.0,42,0.00,CLR,,0.00,WeatherDisplay:10.37,2013-01-18 00:19:00,
2013-01-17 18:24:00,58.5,36.6,30.40,NNW,329,0.0,0.0,44,0.00,CLR,,0.00,WeatherDisplay:10.37,2013-01-18 00:24:00,
2013-01-17 18:29:00,57.7,36.5,30.40,NNW,329,0.0,0.0,45,0.00,CLR,,0.00,WeatherDisplay:10.37,2013-01-18 00:29:00,
2013-01-17 18:34:00,56.7,36.1,30.40,NNW,329,0.0,0.0,46,0.00,CLR,,0.00,WeatherDisplay:10.37,2013-01-18 00:34:00,
2013-01-17 18:39:00,55.9,35.9,30.40,NNW,329,0.0,0.0,47,0.00,CLR,,0.00,WeatherDisplay:10.37,2013-01-18 00:39:00,
2013-01-17 18:44:00,55.2,36.4,30.41,NNW,329,0.0,0.0,49,0.00,CLR,,0.00,WeatherDisplay:10.37,2013-01-18 00:44:00,
2013-01-17 18:49:00,54.4,36.1,30.41,NNW,329,0.0,0.0,50,0.00,CLR,,0.00,WeatherDisplay:10.37,2013-01-18 00:49:00,
2013-01-17 18:54:00,53.5,35.8,30.41,NNW,329,0.0,0.0,51,0.00,CLR,,0.00,WeatherDisplay:10.37,2013-01-18 00:54:00,
2013-01-17 18:59:00,52.9,35.7,30.41,NNW,329,0.0,0.0,52,0.00,CLR,,0.00,WeatherDisplay:10.37,2013-01-18 00:59:00,
2013-01-17 19:04:00,52.2,35.6,30.41,NNW,329,0.0,0.0,53,0.00,CLR,,0.00,WeatherDisplay:10.37,2013-01-18 01:04:00,
2013-01-17 19:09:00,51.5,35.4,30.41,NNW,329,0.0,0.0,54,0.00,CLR,,0.00,WeatherDisplay:10.37,2013-01-18 01:09:00,
2013-01-17 19:14:00,51.0,35.4,30.42,NNW,329,0.0,0.0,55,0.00,CLR,,0.00,WeatherDisplay:10.37,2013-01-18 01:14:00,
2013-01-17 19:19:00,50.5,35.4,30.42,NNW,329,0.0,0.0,56,0.00,CLR,,0.00,WeatherDisplay:10.37,2013-01-18 01:19:00,
2013-01-17 19:24:00,50.0,35.4,30.42,NNW,329,0.0,0.0,57,0.00,CLR,,0.00,WeatherDisplay:10.37,2013-01-18 01:24:00,
2013-01-17 19:29:00,49.5,35.3,30.42,NNW,329,0.0,0.0,58,0.00,CLR,,0.00,WeatherDisplay:10.37,2013-01-18 01:29:00,
2013-01-17 19:34:00,49.0,35.3,30.42,NNW,329,0.0,0.0,59,0.00,CLR,,0.00,WeatherDisplay:10.37,2013-01-18 01:34:00,
2013-01-17 19:39:00,48.5,35.2,30.42,NNW,329,0.0,0.0,60,0.00,CLR,,0.00,WeatherDisplay:10.37,2013-01-18 01:39:00,
2013-01-17 19:44:00,47.9,35.1,30.42,NNW,329,0.0,0.0,61,0.00,CLR,,0.00,WeatherDisplay:10.37,2013-01-18 01:44:00,
2013-01-17 19:49:00,47.6,34.8,30.43,NNW,329,0.0,1.2,61,0.00,CLR,,0.00,WeatherDisplay:10.37,2013-01-18 01:49:00,
2013-01-17 19:54:00,47.6,34.8,30.43,NNW,328,0.3,2.3,61,0.00,CLR,,0.00,WeatherDisplay:10.37,2013-01-18 01:54:00,
2013-01-17 19:59:00,47.8,35.0,30.43,NNW,328,0.0,1.2,61,0.00,CLR,,0.00,WeatherDisplay:10.37,2013-01-18 01:59:00,
2013-01-17 20:04:00,48.0,35.2,30.43,NNW,328,0.3,1.2,61,0.00,CLR,,0.00,WeatherDisplay:10.37,2013-01-18 02:04:00,
2013-01-17 20:09:00,48.1,35.3,30.43,NW,324,0.1,2.3,61,0.00,CLR,,0.00,WeatherDisplay:10.37,2013-01-18 02:09:00,
2013-01-17 20:14:00,48.2,36.2,30.43,NW,314,1.5,1.5,63,0.00,CLR,,0.00,WeatherDisplay:10.37,2013-01-18 02:14:00,
2013-01-17 20:19:00,48.2,35.4,30.43,NW,314,0.3,1.2,61,0.00,CLR,,0.00,WeatherDisplay:10.37,2013-01-18 02:19:00,
2013-01-17 20:24:00,48.1,35.3,30.43,NW,315,0.3,1.2,61,0.00,CLR,,0.00,WeatherDisplay:10.37,2013-01-18 02:24:00,
2013-01-17 20:29:00,48.1,35.3,30.43,NW,314,0.1,0.0,61,0.00,CLR,,0.00,WeatherDisplay:10.37,2013-01-18 02:29:00,
2013-01-17 20:34:00,48.0,35.2,30.43,NW,314,1.3,2.3,61,0.00,CLR,,0.00,WeatherDisplay:10.37,2013-01-18 02:34:00,
2013-01-17 20:39:00,47.9,35.1,30.43,NW,314,0.1,1.2,61,0.00,CLR,,0.00,WeatherDisplay:10.37,2013-01-18 02:39:00,
2013-01-17 20:44:00,47.8,35.4,30.43,NW,314,0.0,0.0,62,0.00,CLR,,0.00,WeatherDisplay:10.37,2013-01-18 02:44:00,
2013-01-17 20:49:00,47.7,35.3,30.43,NW,314,0.1,2.3,62,0.00,CLR,,0.00,WeatherDisplay:10.37,2013-01-18 02:49:00,
2013-01-17 20:54:00,47.6,35.2,30.44,NW,314,0.3,2.3,62,0.00,CLR,,0.00,WeatherDisplay:10.37,2013-01-18 02:54:00,
2013-01-17 20:59:00,47.5,35.1,30.44,NW,314,0.1,2.3,62,0.00,CLR,,0.00,WeatherDisplay:10.37,2013-01-18 02:59:00,
2013-01-17 21:04:00,47.4,35.4,30.44,NW,314,0.4,3.5,63,0.00,CLR,,0.00,WeatherDisplay:10.37,2013-01-18 03:04:00,
2013-01-17 21:09:00,47.3,35.3,30.44,NW,309,1.8,3.0,63,0.00,CLR,,0.00,WeatherDisplay:10.37,2013-01-18 03:09:00,
2013-01-17 21:14:00,47.2,35.2,30.44,NW,309,1.4,3.5,63,0.00,CLR,,0.00,WeatherDisplay:10.37,2013-01-18 03:14:00,
2013-01-17 21:19:00,47.0,35.4,30.44,NW,308,0.0,0.0,64,0.00,CLR,,0.00,WeatherDisplay:10.37,2013-01-18 03:19:00,
2013-01-17 21:24:00,46.7,35.2,30.44,NW,308,0.0,0.0,64,0.00,CLR,,0.00,WeatherDisplay:10.37,2013-01-18 03:24:00,
2013-01-17 21:29:00,46.5,35.0,30.44,NW,308,0.0,0.0,64,0.00,CLR,,0.00,WeatherDisplay:10.37,2013-01-18 03:29:00,
2013-01-17 21:34:00,46.3,35.2,30.44,NW,308,0.0,0.0,65,0.00,CLR,,0.00,WeatherDisplay:10.37,2013-01-18 03:34:00,
2013-01-17 21:39:00,45.9,34.8,30.44,NW,308,0.0,0.0,65,0.00,CLR,,0.00,WeatherDisplay:10.37,2013-01-18 03:39:00,
2013-01-17 21:44:00,45.4,34.7,30.44,NW,308,0.0,0.0,66,0.00,CLR,,0.00,WeatherDisplay:10.37,2013-01-18 03:44:00,
2013-01-17 21:49:00,44.9,34.6,30.44,NW,308,0.0,0.0,67,0.00,CLR,,0.00,WeatherDisplay:10.37,2013-01-18 03:49:00,
2013-01-17 21:54:00,44.4,34.5,30.45,NW,308,0.0,0.0,68,0.00,CLR,,0.00,WeatherDisplay:10.37,2013-01-18 03:54:00,
2013-01-17 21:59:00,44.2,34.3,30.45,NW,308,0.0,0.0,68,0.00,CLR,,0.00,WeatherDisplay:10.37,2013-01-18 03:59:00,
2013-01-17 22:04:00,43.9,34.4,30.45,NW,308,0.0,0.0,69,0.00,CLR,,0.00,WeatherDisplay:10.37,2013-01-18 04:04:00,
2013-01-17 22:09:00,43.7,34.6,30.45,NW,308,0.0,0.0,70,0.00,CLR,,0.00,WeatherDisplay:10.37,2013-01-18 04:09:00,
2013-01-17 22:14:00,43.5,34.0,30.45,NW,308,0.0,0.0,69,0.00,CLR,,0.00,WeatherDisplay:10.37,2013-01-18 04:14:00,
2013-01-17 22:19:00,43.4,33.9,30.45,NW,308,0.0,0.0,69,0.00,CLR,,0.00,WeatherDisplay:10.37,2013-01-18 04:19:00,
2013-01-17 22:24:00,43.2,33.7,30.45,NW,308,0.0,0.0,69,0.00,CLR,,0.00,WeatherDisplay:10.37,2013-01-18 04:24:00,
2013-01-17 22:29:00,43.0,33.9,30.45,NW,308,0.0,0.0,70,0.00,CLR,,0.00,WeatherDisplay:10.37,2013-01-18 04:29:00,
2013-01-17 22:34:00,42.8,34.0,30.45,NW,308,0.0,0.0,71,0.00,CLR,,0.00,WeatherDisplay:10.37,2013-01-18 04:34:00,
2013-01-17 22:39:00,42.5,34.1,30.45,NW,308,0.0,0.0,72,0.00,CLR,,0.00,WeatherDisplay:10.37,2013-01-18 04:39:00,
2013-01-17 22:44:00,42.3,34.3,30.45,NW,308,0.0,0.0,73,0.00,CLR,,0.00,WeatherDisplay:10.37,2013-01-18 04:44:00,
2013-01-17 22:49:00,42.1,34.1,30.45,NW,308,0.0,0.0,73,0.00,CLR,,0.00,WeatherDisplay:10.37,2013-01-18 04:49:00,
2013-01-17 22:54:00,42.0,34.3,30.45,NW,308,0.0,0.0,74,0.00,CLR,,0.00,WeatherDisplay:10.37,2013-01-18 04:54:00,
2013-01-17 22:59:00,41.9,34.2,30.45,NW,308,0.0,0.0,74,0.00,CLR,,0.00,WeatherDisplay:10.37,2013-01-18 04:59:00,
2013-01-17 23:00:00,41.9,34.2,30.45,NW,308,0.0,0.0,74,0.00,CLR,,0.00,WeatherDisplay:10.37,2013-01-18 05:00:00,
2013-01-17 23:01:00,41.9,34.2,30.45,NW,308,0.0,0.0,74,0.00,CLR,,0.00,WeatherDisplay:10.37,2013-01-18 05:01:00,
2013-01-17 23:03:00,41.8,33.8,30.45,NW,308,0.0,0.0,73,0.00,CLR,,0.00,WeatherDisplay:10.37,2013-01-18 05:03:00,
2013-01-17 23:08:00,41.6,33.2,30.45,NW,308,0.0,0.0,72,0.00,CLR,,0.00,WeatherDisplay:10.37,2013-01-18 05:08:00,
2013-01-17 23:13:00,41.3,33.0,30.45,NW,308,0.0,0.0,72,0.00,CLR,,0.00,WeatherDisplay:10.37,2013-01-18 05:13:00,
2013-01-17 23:18:00,41.0,32.7,30.45,NW,308,0.0,0.0,72,0.00,CLR,,0.00,WeatherDisplay:10.37,2013-01-18 05:18:00,
2013-01-17 23:23:00,40.8,32.5,30.45,NW,308,0.0,0.0,72,0.00,CLR,,0.00,WeatherDisplay:10.37,2013-01-18 05:23:00,
2013-01-17 23:28:00,40.6,33.0,30.45,NW,308,0.0,0.0,74,0.00,CLR,,0.00,WeatherDisplay:10.37,2013-01-18 05:28:00,
2013-01-17 23:33:00,40.4,33.1,30.45,NW,308,0.0,0.0,75,0.00,CLR,,0.00,WeatherDisplay:10.37,2013-01-18 05:33:00,
2013-01-17 23:38:00,40.2,33.2,30.45,NW,308,0.0,0.0,76,0.00,CLR,,0.00,WeatherDisplay:10.37,2013-01-18 05:38:00,
2013-01-17 23:43:00,40.0,33.4,30.45,NW,308,0.0,0.0,77,0.00,CLR,,0.00,WeatherDisplay:10.37,2013-01-18 05:43:00,
2013-01-17 23:48:00,39.9,33.6,30.45,NW,308,0.0,0.0,78,0.00,CLR,,0.00,WeatherDisplay:10.37,2013-01-18 05:48:00,
2013-01-17 23:53:00,39.9,33.6,30.45,NW,308,0.0,0.0,78,0.00,CLR,,0.00,WeatherDisplay:10.37,2013-01-18 05:53:00,
2013-01-17 23:58:00,40.0,34.0,30.45,NW,308,0.0,0.0,79,0.00,CLR,,0.00,WeatherDisplay:10.37,2013-01-18 05:58:00,